FW1685 Weather Reports


Display with metric or nautical units.
time (UTC)temp
F
wind
direction
speed
MPH
gust
MPH
rain 1hr
in
rain 24hr
in
rain mn
in
humidity
%
barometer
mb
20200705233407 61 135 4.0 6.0 0.15 0.47 0.47 93 1013.6
20200705232407 61 202 2.0 4.0 0.13 0.43 0.43 92 1013.2
20200705231407 62 202 4.0 6.0 0.13 0.40 0.40 90 1013.1
20200705230407 62 180 3.0 4.0 0.10 0.37 0.37 92 1013.0
20200705225407 63 225 4.0 7.0 0.10 0.36 0.36 90 1012.7
20200705224407 63 202 4.0 5.0 0.11 0.34 0.34 91 1012.9
20200705223407 64 247 7.0 12.0 0.30 0.31 0.31 88 1012.3
20200705222407 64 225 3.0 4.0 0.29 0.29 0.29 86 1012.4
20200705221407 65 247 14.0 19.0 0.26 0.26 0.26 82 1012.3
20200705220408 67 270 6.0 10.0 0.26 0.26 0.26 86 1012.2
20200705215406 66 202 5.0 7.0 0.25 0.25 0.25 89 1012.6
20200705214408 66 315 14.0 22.0 0.22 0.22 0.22 78 1011.7
20200705213408 73 45 6.0 10.0 0.01 0.01 0.01 76 1012.4
20200705212408 76 315 8.0 12.0 0.00 0.00 0.00 65 1012.4
20200705211407 77 270 11.0 14.0 0.00 0.00 0.00 61 1012.7
20200705210408 77 315 9.0 13.0 0.00 0.00 0.00 60 1012.7
20200705205407 78 292 5.0 10.0 0.00 0.00 0.00 62 1013.2
20200705204407 78 247 8.0 13.0 0.00 0.00 0.00 60 1013.2
20200705203407 77 247 4.0 10.0 0.00 0.00 0.00 59 1013.3
20200705202406 78 247 9.0 13.0 0.00 0.00 0.00 60 1013.6
20200705201406 76 270 8.0 12.0 0.00 0.00 0.00 63 1013.8
20200705200413 76 247 7.0 9.0 0.00 0.00 0.00 62 1013.8
20200705195408 76 292 6.0 8.0 0.00 0.00 0.00 62 1014.2
20200705194408 76 292 5.0 10.0 0.00 0.00 0.00 63 1014.2
20200705193407 76 247 13.0 17.0 0.00 0.00 0.00 63 1014.5
20200705192407 77 247 7.0 8.0 0.00 0.00 0.00 57 1014.7
20200705191408 77 270 6.0 11.0 0.00 0.00 0.00 58 1014.9
20200705190408 76 180 6.0 8.0 0.00 0.00 0.00 60 1015.1
20200705185409 75 247 7.0 10.0 0.00 0.00 0.00 62 1015.2
20200705184410 74 247 2.0 5.0 0.00 0.00 0.00 63 1015.4
20200705183413 74 247 4.0 7.0 0.00 0.00 0.00 64 1015.5
20200705182409 74 225 4.0 5.0 0.00 0.00 0.00 65 1015.7
20200705181409 74 270 12.0 20.0 0.00 0.00 0.00 64 1015.8
20200705180410 74 270 4.0 7.0 0.00 0.00 0.00 65 1016.0
20200705175409 73 225 2.0 3.0 0.00 0.00 0.00 66 1016.2
20200705174408 73 247 4.0 6.0 0.00 0.00 0.00 69 1016.7
20200705173408 72 225 3.0 6.0 0.00 0.00 0.00 69 1016.8
20200705172408 71 315 6.0 8.0 0.00 0.00 0.00 72 1016.8
20200705171408 70 247 6.0 10.0 0.00 0.00 0.00 72 1017.0
20200705170408 69 315 4.0 5.0 0.00 0.00 0.00 76 1017.1
20200705165408 68 337 3.0 5.0 0.00 0.00 0.00 77 1017.1
20200705164408 68 315 6.0 9.0 0.00 0.00 0.00 77 1017.1
20200705163413 69 337 3.0 4.0 0.00 0.00 0.00 75 1017.1
20200705162408 68 247 4.0 6.0 0.00 0.00 0.00 77 1017.0
20200705161411 69 315 6.0 8.0 0.00 0.00 0.00 77 1017.2
20200705160409 69 292 7.0 10.0 0.00 0.00 0.00 78 1017.2
20200705155408 69 202 3.0 6.0 0.00 0.00 0.00 72 1017.1
20200705154408 69 315 3.0 5.0 0.00 0.00 0.00 76 1017.0
20200705153408 69 270 7.0 8.0 0.00 0.00 0.00 76 1017.2
20200705152408 67 270 7.0 9.0 0.00 0.00 0.00 79 1017.1
20200705151408 67 270 5.0 7.0 0.00 0.00 0.00 79 1017.2
20200705150408 67 270 4.0 10.0 0.00 0.00 0.00 81 1017.3
20200705145407 65 247 3.0 6.0 0.00 0.00 0.00 83 1017.2
20200705144407 65 247 4.0 5.0 0.00 0.00 0.00 84 1017.2
20200705143408 65 270 2.0 3.0 0.00 0.00 0.00 84 1017.1
20200705142407 65 315 3.0 4.0 0.00 0.00 0.00 84 1017.2
20200705141408 65 337 4.0 5.0 0.00 0.00 0.00 83 1017.3
20200705140407 66 315 2.0 3.0 0.00 0.00 0.00 79 1017.4
20200705135408 66 315 2.0 3.0 0.00 0.00 0.00 77 1017.2
20200705134408 66 202 1.0 1.0 0.00 0.00 0.00 77 1017.0
20200705133410 66 180 1.0 1.0 0.00 0.00 0.00 79 1017.1
20200705132408 65 202 1.0 2.0 0.00 0.00 0.00 80 1016.9
20200705131408 65 157 1.0 2.0 0.00 0.00 0.00 83 1017.0
20200705130408 64 157 2.0 2.0 0.00 0.00 0.00 85 1016.9
20200705125407 64 180 2.0 3.0 0.00 0.00 0.00 86 1016.7
20200705124408 63 202 1.0 3.0 0.00 0.00 0.00 87 1016.6
20200705123408 63 202 2.0 3.0 0.00 0.00 0.00 88 1016.5
20200705122407 63 180 2.0 3.0 0.00 0.00 0.00 89 1016.5
20200705121408 63 157 3.0 4.0 0.00 0.00 0.00 88 1016.4
20200705120407 63 180 1.0 2.0 0.00 0.00 0.00 87 1016.5
20200705115409 64 202 1.0 2.0 0.00 0.00 0.00 85 1016.6
20200705114407 64 225 2.0 3.0 0.00 0.00 0.00 81 1016.7
20200705113409 65 225 1.0 2.0 0.00 0.00 0.00 77 1016.7
20200705112407 65 0.0 1.0 0.00 0.00 0.00 78 1016.5
20200705111407 64 0.0 0.0 0.00 0.00 0.00 78 1016.5
20200705110407 64 225 1.0 1.0 0.00 0.00 0.00 78 1016.5
20200705105408 65 0.0 1.0 0.00 0.00 0.00 77 1016.3
20200705104407 65 225 1.0 1.0 0.00 0.00 0.00 77 1016.2
20200705103407 65 225 1.0 1.0 0.00 0.00 0.00 77 1016.1
20200705102407 65 0.0 1.0 0.00 0.00 0.00 77 1015.9
20200705101407 64 0.0 1.0 0.00 0.00 0.00 77 1016.0
20200705100409 64 0.0 1.0 0.00 0.00 0.00 77 1015.8
20200705095407 65 202 2.0 2.0 0.00 0.00 0.00 77 1015.6
20200705094407 65 202 2.0 3.0 0.00 0.00 0.00 77 1015.6
20200705093407 65 247 1.0 2.0 0.00 0.00 0.00 77 1015.7
20200705092408 65 270 1.0 1.0 0.00 0.00 0.00 78 1015.6
20200705091407 65 270 2.0 3.0 0.00 0.00 0.00 78 1016.0
20200705090407 65 270 2.0 3.0 0.00 0.00 0.00 77 1016.1
20200705085407 65 292 2.0 4.0 0.00 0.00 0.00 75 1016.1
20200705084407 66 315 3.0 4.0 0.00 0.00 0.00 74 1016.1
20200705083408 66 135 1.0 1.0 0.00 0.00 0.00 73 1016.1
20200705082407 66 0.0 0.0 0.00 0.00 0.00 73 1016.1
20200705081408 67 0.0 1.0 0.00 0.00 0.00 71 1016.2
20200705080407 67 135 1.0 3.0 0.00 0.00 0.00 70 1016.1
20200705075407 67 135 2.0 2.0 0.00 0.00 0.00 71 1016.1
20200705074407 67 135 3.0 3.0 0.00 0.00 0.00 70 1016.3
20200705073407 67 135 3.0 5.0 0.00 0.00 0.00 71 1016.3
20200705072407 67 135 3.0 5.0 0.00 0.00 0.00 70 1016.3
20200705071407 67 157 2.0 4.0 0.00 0.00 0.00 70 1016.4
20200705070407 67 135 4.0 8.0 0.00 0.00 0.00 70 1016.3
20200705065407 67 157 3.0 4.0 0.00 0.00 0.00 70 1016.5
20200705064407 67 135 3.0 4.0 0.00 0.00 0.00 69 1016.7
20200705063408 67 135 3.0 5.0 0.00 0.00 0.00 69 1016.6
20200705062407 67 112 2.0 3.0 0.00 0.00 0.00 70 1016.7
20200705061407 67 90 1.0 2.0 0.00 0.00 0.00 69 1016.7
20200705060406 68 90 1.0 3.0 0.00 0.00 0.00 69 1016.5
20200705055406 68 90 3.0 4.0 0.00 0.00 0.00 68 1016.6
20200705054407 68 90 3.0 5.0 0.00 0.00 0.00 68 1016.5
20200705053407 68 112 3.0 4.0 0.00 0.00 0.00 68 1016.7
20200705052407 68 90 3.0 7.0 0.00 0.00 0.00 68 1016.7
20200705051407 67 90 2.0 3.0 0.00 0.00 0.00 71 1016.9
20200705050410 66 67 1.0 2.0 0.00 0.00 0.00 73 1016.8
20200705045408 66 67 1.0 2.0 0.00 0.00 0.00 75 1017.0
20200705044410 66 67 1.0 1.0 0.00 0.00 0.00 75 1016.7
20200705043407 66 0.0 1.0 0.00 0.00 0.00 75 1016.6
20200705042408 66 22 1.0 2.0 0.00 0.00 0.00 75 1016.3
20200705041407 66 337 1.0 2.0 0.00 0.00 0.00 74 1016.1
20200705040408 66 0.0 0.0 0.00 0.00 0.00 73 1015.9
20200705035407 67 337 2.0 2.0 0.00 0.00 0.00 72 1015.8
20200705034407 68 337 3.0 4.0 0.00 0.00 0.00 70 1016.0
20200705033407 69 45 2.0 4.0 0.00 0.00 0.00 65 1015.8
20200705032407 69 67 2.0 3.0 0.00 0.00 0.00 65 1015.8
20200705031407 69 45 3.0 4.0 0.00 0.00 0.00 65 1015.9
20200705030407 69 45 2.0 3.0 0.00 0.00 0.00 64 1015.8
20200705025407 70 45 3.0 5.0 0.00 0.00 0.00 64 1015.6
20200705024411 70 45 4.0 6.0 0.00 0.00 0.00 64 1015.4
20200705023408 70 337 3.0 4.0 0.00 0.00 0.00 63 1015.2
20200705022407 71 135 1.0 1.0 0.00 0.00 0.00 62 1014.9
20200705021407 71 112 2.0 4.0 0.00 0.00 0.00 60 1014.7
20200705020407 72 135 4.0 7.0 0.00 0.00 0.00 59 1014.3
20200705015408 72 90 2.0 3.0 0.00 0.00 0.00 56 1014.2
20200705014407 73 90 3.0 4.0 0.00 0.00 0.00 55 1014.0
20200705013408 73 90 4.0 4.0 0.00 0.00 0.00 54 1013.9
20200705012407 74 90 6.0 8.0 0.00 0.00 0.00 53 1013.7
20200705011407 75 112 6.0 8.0 0.00 0.00 0.00 52 1013.6
20200705010408 75 112 7.0 9.0 0.00 0.00 0.00 51 1013.4
20200705005407 76 112 6.0 10.0 0.00 0.00 0.00 50 1013.3
20200705004407 76 112 6.0 8.0 0.00 0.00 0.00 48 1013.0
20200705003407 77 112 5.0 7.0 0.00 0.00 0.00 47 1012.9
20200705002407 77 112 5.0 7.0 0.00 0.00 0.00 46 1013.0
20200705001407 77 157 8.0 12.0 0.00 0.00 0.00 46 1013.0
20200705000407 78 135 6.0 10.0 0.00 0.00 0.00 46 1013.0
20200704235412 78 135 5.0 7.0 0.00 0.00 0.00 45 1012.8
20200704234407 79 135 5.0 7.0 0.00 0.00 0.00 44 1012.9